TimeCST,TemperatureF,Dew PointF,Humidity,Sea Level PressureIn,VisibilityMPH,Wind Direction,Wind SpeedMPH,Gust SpeedMPH,PrecipitationIn,Events,Conditions,WindDirDegrees,DateUTC
12:52 AM,19.0,12.0,74,30.40,10.0,East,5.8,-,N/A,,Partly Cloudy,90,2013-02-21 06:52:00
1:52 AM,18.0,10.9,74,30.40,10.0,ENE,3.5,-,N/A,,Clear,70,2013-02-21 07:52:00
2:52 AM,17.1,10.0,74,30.40,10.0,ENE,3.5,-,N/A,,Clear,70,2013-02-21 08:52:00
3:52 AM,17.1,10.0,74,30.37,10.0,ENE,6.9,-,N/A,,Clear,60,2013-02-21 09:52:00
4:52 AM,16.0,10.0,77,30.35,10.0,ENE,5.8,-,N/A,,Clear,70,2013-02-21 10:52:00
5:52 AM,15.1,10.0,80,30.37,10.0,ENE,4.6,-,N/A,,Clear,60,2013-02-21 11:52:00
6:52 AM,17.1,9.0,71,30.34,10.0,ENE,9.2,-,N/A,,Clear,70,2013-02-21 12:52:00
7:52 AM,18.0,9.0,68,30.36,10.0,ENE,8.1,-,N/A,,Clear,70,2013-02-21 13:52:00
8:52 AM,19.0,10.0,68,30.36,10.0,East,9.2,-,N/A,,Clear,80,2013-02-21 14:52:00
9:52 AM,19.9,10.9,68,30.35,10.0,East,9.2,17.3,N/A,,Clear,90,2013-02-21 15:52:00
10:52 AM,21.9,12.9,68,30.32,10.0,East,13.8,-,N/A,,Clear,90,2013-02-21 16:52:00
11:52 AM,24.1,15.1,69,30.27,10.0,East,11.5,21.9,N/A,,Scattered Clouds,80,2013-02-21 17:52:00
11:59 AM,24.8,15.8,69,30.23,10.0,East,13.8,19.6,N/A,,Mostly Cloudy,80,2013-02-21 17:59:00
12:52 PM,26.1,17.1,69,30.21,10.0,East,11.5,23.0,N/A,,Overcast,80,2013-02-21 18:52:00
1:52 PM,26.1,19.0,75,30.19,10.0,East,13.8,23.0,N/A,,Overcast,90,2013-02-21 19:52:00
2:52 PM,27.0,19.9,75,30.16,10.0,East,18.4,26.5,N/A,,Overcast,80,2013-02-21 20:52:00
3:19 PM,26.6,21.2,80,30.10,10.0,East,12.7,24.2,N/A,,Overcast,80,2013-02-21 21:19:00
3:52 PM,26.1,21.0,81,30.13,10.0,ENE,16.1,23.0,N/A,,Overcast,70,2013-02-21 21:52:00
4:52 PM,26.1,21.0,81,30.09,10.0,ENE,15.0,-,N/A,,Overcast,70,2013-02-21 22:52:00
5:24 PM,26.6,21.2,80,30.03,1.8,ENE,13.8,25.3,0.00,Snow,Light Snow,70,2013-02-21 23:24:00
5:31 PM,26.6,21.2,80,30.02,0.8,ENE,19.6,27.6,0.00,Snow,Light Snow,70,2013-02-21 23:31:00
5:52 PM,26.1,23.0,88,30.05,0.5,ENE,15.0,21.9,0.01,Fog-Snow,Snow,70,2013-02-21 23:52:00
5:59 PM,26.6,23.0,86,30.01,1.2,ENE,15.0,21.9,0.00,Snow,Light Snow,60,2013-02-21 23:59:00
6:03 PM,26.6,23.0,86,30.01,2.0,ENE,16.1,21.9,0.00,Snow,Light Snow,70,2013-02-22 00:03:00
6:10 PM,26.6,23.0,86,30.00,2.5,ENE,18.4,23.0,0.00,Snow,Light Snow,60,2013-02-22 00:10:00
6:13 PM,26.6,23.0,86,30.00,3.0,ENE,18.4,25.3,0.00,Snow,Light Snow,60,2013-02-22 00:13:00
6:31 PM,26.6,23.0,86,29.99,5.0,ENE,16.1,23.0,0.00,Snow,Light Snow,60,2013-02-22 00:31:00
6:52 PM,26.1,21.9,84,30.00,4.0,ENE,18.4,28.8,0.00,Snow,Light Snow,60,2013-02-22 00:52:00
7:30 PM,26.6,23.0,86,29.96,1.8,ENE,16.1,26.5,0.01,Snow,Light Snow,70,2013-02-22 01:30:00
7:44 PM,26.6,23.0,86,29.95,0.8,ENE,15.0,25.3,0.02,Snow,Light Snow,70,2013-02-22 01:44:00
7:52 PM,26.1,24.1,92,29.98,0.8,ENE,17.3,25.3,0.02,Snow,Light Snow,60,2013-02-22 01:52:00
8:16 PM,26.6,24.8,93,29.93,0.5,ENE,15.0,26.5,0.02,Fog-Snow,Snow,70,2013-02-22 02:16:00
8:28 PM,26.6,24.8,93,29.92,0.8,ENE,16.1,24.2,0.03,Snow,Light Snow,70,2013-02-22 02:28:00
8:52 PM,26.1,24.1,92,29.95,0.8,ENE,10.4,23.0,0.04,Snow,Light Snow,70,2013-02-22 02:52:00
9:24 PM,26.6,24.8,93,29.91,0.2,East,24.2,32.2,0.04,Fog-Snow,Heavy Snow,80,2013-02-22 03:24:00
9:41 PM,26.6,24.8,93,29.91,0.8,East,15.0,26.5,0.05,Snow,Light Snow,80,2013-02-22 03:41:00
9:43 PM,26.6,24.8,93,29.92,1.0,East,13.8,25.3,0.05,Snow,Light Snow,80,2013-02-22 03:43:00
9:52 PM,26.1,24.1,92,29.95,1.0,East,13.8,21.9,0.05,Snow,Light Snow,90,2013-02-22 03:52:00
10:24 PM,24.8,23.0,93,29.92,0.5,East,11.5,23.0,0.02,Fog-Snow,Snow,100,2013-02-22 04:24:00
10:52 PM,25.0,21.9,88,29.94,0.8,East,12.7,26.5,0.04,Snow,Light Snow,90,2013-02-22 04:52:00
11:09 PM,24.8,21.2,86,29.90,1.2,East,12.7,19.6,0.01,Snow,Light Snow,90,2013-02-22 05:09:00
11:21 PM,24.8,21.2,86,29.90,2.5,East,11.5,19.6,0.01,Snow,Light Snow,80,2013-02-22 05:21:00
11:27 PM,24.8,21.2,86,29.89,1.8,East,10.4,-,0.02,Snow,Light Snow,90,2013-02-22 05:27:00
11:52 PM,24.1,21.9,91,29.91,2.0,East,12.7,-,0.04,Snow,Light Snow,90,2013-02-22 05:52:00